Location: Newark
(43.4306°N, 0.3089°E)
Time: 07:46:26
(UTC+00:00)

Vanguard 1 - All Passes

Search period start: 24 August 2019 00:00
Search period end: 03 September 2019 00:00
Orbit: 654 x 3829 km, 34.2° (Epoch: 23 August)

Date Brightness Start Highest point End Pass type
(mag) Time Alt. Az. Time Alt. Az. Time Alt. Az.
24 Aug - 09:45:16 10° SSW 09:49:27 19° SSE 09:52:50 10° ESE daylight
24 Aug - 12:04:56 10° WSW 12:08:54 27° S 12:12:47 10° ESE daylight
24 Aug - 14:25:02 10° WSW 14:28:19 19° SSW 14:32:15 10° SSE daylight
25 Aug - 07:48:19 10° S 07:50:13 11° SSE 07:51:56 10° SE daylight
25 Aug - 10:05:39 10° SW 10:10:19 23° S 10:14:02 10° ESE daylight
25 Aug - 12:25:51 10° WSW 12:29:43 26° S 12:33:35 10° SE daylight
25 Aug - 14:46:33 10° SW 14:49:10 15° SSW 14:52:11 10° SSE daylight
26 Aug - 08:06:46 10° SSW 08:11:13 16° SSE 08:14:42 10° SE daylight
26 Aug - 10:26:18 10° SW 10:31:10 27° S 10:35:02 10° ESE daylight
26 Aug - 12:46:52 10° WSW 12:50:31 24° S 12:54:16 10° SE daylight
26 Aug - 15:09:37 10° SSW 15:10:02 10° SSW 15:10:28 10° SSW daylight
27 Aug - 08:26:32 10° SSW 08:32:12 21° SSE 08:36:19 10° ESE daylight
27 Aug - 10:47:07 10° WSW 10:52:01 29° S 10:55:56 10° ESE daylight
27 Aug - 13:08:00 10° WSW 13:11:19 20° SSW 13:14:45 10° SSE daylight
28 Aug - 06:28:54 10° S 06:32:27 12° SSE 06:35:27 10° SE daylight
28 Aug - 08:46:49 10° SW 08:53:08 25° S 08:57:33 10° ESE daylight
28 Aug - 11:08:03 10° WSW 11:12:50 29° S 11:16:45 10° ESE daylight
28 Aug - 13:29:24 10° WSW 13:32:05 16° SSW 13:34:54 10° SSE daylight
29 Aug - 06:47:17 10° SSW 06:53:32 17° SSE 06:58:09 10° ESE daylight
29 Aug - 09:07:26 10° SW 09:14:04 30° S 09:18:35 10° ESE daylight
29 Aug - 11:29:05 10° WSW 11:33:38 28° S 11:37:27 10° SE daylight
29 Aug - 13:51:33 10° SW 13:52:51 11° SSW 13:54:10 10° S daylight
30 Aug - 07:06:50 10° SSW 07:14:35 22° SSE 07:19:51 10° ESE daylight
30 Aug - 09:28:16 10° WSW 09:34:57 33° S 09:39:30 10° ESE daylight
30 Aug - 11:50:13 10° WSW 11:54:24 24° SSW 11:58:01 10° SE daylight
31 Aug - 05:09:07 10° S 05:14:13 13° SSE 05:18:24 10° SE daylight
31 Aug - 07:27:00 10° SW 07:35:37 28° SSE 07:41:09 10° ESE daylight
31 Aug - 09:49:15 10° WSW 09:55:50 35° S 10:00:20 10° ESE daylight
31 Aug - 12:11:30 10° WSW 12:15:07 20° SSW 12:18:23 10° SSE daylight
01 Sep - 05:27:07 10° SSW 05:35:22 18° SSE 05:41:19 10° ESE daylight
01 Sep - 07:47:33 10° SW 07:56:37 33° S 08:02:15 10° ESE daylight
01 Sep - 10:10:20 10° WSW 10:16:40 34° S 10:21:04 10° ESE daylight
01 Sep - 12:33:05 10° WSW 12:35:48 15° SSW 12:38:21 10° S daylight
02 Sep - 05:46:22 10° SSW 05:56:30 24° SSE 06:03:11 10° ESE daylight
02 Sep - 08:08:21 10° SW 08:17:36 37° S 08:23:12 10° ESE daylight
02 Sep - 10:31:30 10° WSW 10:37:28 32° SSW 10:41:44 10° SE daylight
02 Sep - 12:56:05 10° SW 12:56:27 10° SSW 12:56:48 10° SSW daylight
